Location: *
(45.9500°N, 9.0833°E)
Time: 17:53:24
(UTC+00:00)

ASTEX 1 - Pass Details

Date: 03 March 2021
Orbit: 720 x 743 km, 92.7° (Epoch: 16 April)

Event Time Altitude Azimuth Distance (km) Brightness Sun altitude
Rises 19:20:35 0° 5° (N) 3,149 6.8 -22.8°
Reaches altitude 10° 19:22:53 10° 6° (N) 2,222 6.0 -23.2°
Maximum altitude 19:27:48 87° 95° (E) 729 3.2 -24.0°
Enters shadow 19:30:17 30° 185° (S) 1,283 4.5 -24.4°
